User: anonymous   Login
Location: Washington
(38.8950°N, 77.0370°W)
Time: 15:46:13
(UTC-04:00)
Language:

IDEFIX/ARIANE 42P - Orbit

View from above orbital plane
View from above orbital plane
View from above satellite
View from above satellite

Ground track
Ground track

The orbit data is extracted from the following two-line orbital elements,

1 27422U 02021B   16119.92748418 -.00000004 +00000-0 +14443-4 0  9998
2 27422 098.2328 137.1652 0012891 030.6398 329.5536 14.29239212729394
Epoch (UTC): 28 April 2016 22:15:34
Eccentricity: 0.0012891
inclination: 98.2328°
perigee height: 785 km
apogee height: 803 km
right ascension of ascending node: 137.1652°
argument of perigee: 30.6398°
revolutions per day: 14.29239212
mean anomaly at epoch: 329.5536°
orbit number at epoch: 72939

The dashed part of the orbit path shows where the satellite is in the earth's shadow,  

DLR